TimeAKST,TemperatureF,Dew PointF,Humidity,Sea Level PressureIn,VisibilityMPH,Wind Direction,Wind SpeedMPH,Gust SpeedMPH,PrecipitationIn,Events,Conditions,WindDirDegrees,DateUTC
12:16 AM,-9.4,-9999,N/A,29.56,10.0,Calm,Calm,-,N/A,,Clear,0,2012-12-27 09:16:00
12:36 AM,-11.2,-9999,N/A,29.56,10.0,Calm,Calm,-,N/A,,Clear,0,2012-12-27 09:36:00
12:56 AM,-9.4,-27.4,41,29.56,10.0,Calm,Calm,-,N/A,,Clear,0,2012-12-27 09:56:00
1:16 AM,-11.2,-25.6,49,29.56,10.0,Calm,Calm,-,N/A,,Clear,0,2012-12-27 10:16:00
1:36 AM,-11.2,-9999,N/A,29.56,10.0,Calm,Calm,-,N/A,,Clear,0,2012-12-27 10:36:00
1:56 AM,-13.0,-9999,N/A,29.56,10.0,Calm,Calm,-,N/A,,Clear,0,2012-12-27 10:56:00
2:16 AM,-14.8,-9999,N/A,29.56,10.0,Calm,Calm,-,N/A,,Clear,0,2012-12-27 11:16:00
2:36 AM,-11.2,-9999,N/A,29.56,10.0,Calm,Calm,-,N/A,,Clear,0,2012-12-27 11:36:00
2:56 AM,-11.2,-9999,N/A,29.55,10.0,Calm,Calm,-,N/A,,Clear,0,2012-12-27 11:56:00
3:16 AM,-11.2,-27.4,45,29.55,10.0,Calm,Calm,-,N/A,,Clear,0,2012-12-27 12:16:00
3:36 AM,-14.8,-9999,N/A,29.55,10.0,Calm,Calm,-,N/A,,Clear,0,2012-12-27 12:36:00
3:56 AM,-11.2,-23.8,54,29.55,10.0,Calm,Calm,-,N/A,,Clear,0,2012-12-27 12:56:00
4:16 AM,-11.2,-27.4,45,29.54,10.0,Calm,Calm,-,N/A,,Clear,0,2012-12-27 13:16:00
4:36 AM,-9.4,-9999,N/A,29.53,10.0,Calm,Calm,-,N/A,,Clear,0,2012-12-27 13:36:00
4:56 AM,-13.0,-9999,N/A,29.53,9.0,Calm,Calm,-,N/A,,Clear,0,2012-12-27 13:56:00
5:16 AM,-9.4,-9999,N/A,29.52,10.0,Calm,Calm,-,N/A,,Clear,0,2012-12-27 14:16:00
5:36 AM,-9.4,-27.4,41,29.52,10.0,Calm,Calm,-,N/A,,Clear,0,2012-12-27 14:36:00
5:56 AM,-7.6,-23.8,45,29.52,10.0,Calm,Calm,-,N/A,,Clear,0,2012-12-27 14:56:00
6:16 AM,-5.8,-16.6,60,29.51,10.0,Calm,Calm,-,N/A,,Clear,0,2012-12-27 15:16:00
6:36 AM,-2.2,-45.4,11,29.51,10.0,Calm,Calm,-,N/A,,Clear,0,2012-12-27 15:36:00
6:56 AM,-5.8,-9999,N/A,29.50,10.0,Calm,Calm,-,N/A,,Clear,0,2012-12-27 15:56:00
7:16 AM,-16.6,-9999,N/A,29.51,10.0,Calm,Calm,-,N/A,,Clear,0,2012-12-27 16:16:00
7:36 AM,-11.2,-9999,N/A,29.51,10.0,Calm,Calm,-,N/A,,Clear,0,2012-12-27 16:36:00
7:56 AM,-7.6,-29.2,34,29.51,10.0,Calm,Calm,-,N/A,,Clear,0,2012-12-27 16:56:00
8:16 AM,-16.6,-9999,N/A,29.51,10.0,Calm,Calm,-,N/A,,Clear,0,2012-12-27 17:16:00
8:36 AM,-14.8,-9999,N/A,29.51,10.0,Calm,Calm,-,N/A,,Clear,0,2012-12-27 17:36:00
8:56 AM,-11.2,-25.6,49,29.51,10.0,Calm,Calm,-,N/A,,Clear,0,2012-12-27 17:56:00
9:16 AM,-7.6,-20.2,54,29.51,10.0,Calm,Calm,-,N/A,,Clear,0,2012-12-27 18:16:00
9:36 AM,-9.4,-23.8,49,29.51,10.0,Calm,Calm,-,N/A,,Clear,0,2012-12-27 18:36:00
10:16 AM,-11.2,-16.6,77,29.51,10.0,Calm,Calm,-,N/A,,Clear,0,2012-12-27 19:16:00
10:36 AM,-14.8,-9999,N/A,29.50,9.0,Calm,Calm,-,N/A,,Clear,0,2012-12-27 19:36:00
10:56 AM,-14.8,-9999,N/A,29.50,10.0,Calm,Calm,-,N/A,,Clear,0,2012-12-27 19:56:00
11:16 AM,-11.2,-9999,N/A,29.50,10.0,Calm,Calm,-,N/A,,Clear,0,2012-12-27 20:16:00
11:36 AM,-13.0,-9999,N/A,29.50,10.0,Calm,Calm,-,N/A,,Clear,0,2012-12-27 20:36:00
11:56 AM,-18.4,-9999,N/A,29.50,10.0,NNE,3.5,-,N/A,,Clear,30,2012-12-27 20:56:00
12:16 PM,-14.8,-9999,N/A,29.50,10.0,NNE,3.5,-,N/A,,Clear,30,2012-12-27 21:16:00
12:36 PM,-9.4,-18.4,65,29.50,10.0,Calm,Calm,-,N/A,,Clear,0,2012-12-27 21:36:00
12:56 PM,-11.2,-23.8,54,29.50,10.0,Calm,Calm,-,N/A,,Clear,0,2012-12-27 21:56:00
1:16 PM,-11.2,-9999,N/A,29.50,10.0,NNE,3.5,-,N/A,,Clear,30,2012-12-27 22:16:00
1:36 PM,-16.6,-9999,N/A,29.50,10.0,NNE,3.5,-,N/A,,Clear,30,2012-12-27 22:36:00
1:56 PM,-18.4,-9999,N/A,29.50,10.0,Calm,Calm,-,N/A,,Clear,0,2012-12-27 22:56:00
2:16 PM,-16.6,-9999,N/A,29.49,10.0,Calm,Calm,-,N/A,,Clear,0,2012-12-27 23:16:00
2:36 PM,-16.6,-9999,N/A,29.49,10.0,Calm,Calm,-,N/A,,Clear,0,2012-12-27 23:36:00
3:16 PM,-14.8,-9999,N/A,29.49,9.0,Calm,Calm,-,N/A,,Clear,0,2012-12-28 00:16:00
3:36 PM,-13.0,-23.8,59,29.48,10.0,Calm,Calm,-,N/A,,Clear,0,2012-12-28 00:36:00
3:56 PM,-16.6,-9999,N/A,29.49,10.0,Calm,Calm,-,N/A,,Clear,0,2012-12-28 00:56:00
4:16 PM,-16.6,-23.8,70,29.49,10.0,Calm,Calm,-,N/A,,Clear,0,2012-12-28 01:16:00
4:36 PM,-16.6,-9999,N/A,29.49,10.0,Calm,Calm,-,N/A,,Clear,0,2012-12-28 01:36:00
4:56 PM,-14.8,-9999,N/A,29.49,9.0,Calm,Calm,-,N/A,,Clear,0,2012-12-28 01:56:00
5:16 PM,-16.6,-9999,N/A,29.49,10.0,Calm,Calm,-,N/A,,Clear,0,2012-12-28 02:16:00
5:36 PM,-18.4,-9999,N/A,29.48,10.0,Calm,Calm,-,N/A,,Clear,0,2012-12-28 02:36:00
5:56 PM,-16.6,-9999,N/A,29.48,9.0,Calm,Calm,-,N/A,,Clear,0,2012-12-28 02:56:00
6:16 PM,-14.8,-9999,N/A,29.48,9.0,Calm,Calm,-,N/A,,Clear,0,2012-12-28 03:16:00
6:36 PM,-16.6,-9999,N/A,29.48,10.0,Calm,Calm,-,N/A,,Clear,0,2012-12-28 03:36:00
6:56 PM,-14.8,-9999,N/A,29.48,10.0,North,3.5,-,N/A,,Clear,360,2012-12-28 03:56:00
7:16 PM,-9.4,-27.4,41,29.48,10.0,Calm,Calm,-,N/A,,Clear,0,2012-12-28 04:16:00
7:36 PM,-14.8,-9999,N/A,29.49,10.0,Calm,Calm,-,N/A,,Clear,0,2012-12-28 04:36:00
7:56 PM,-18.4,-9999,N/A,29.49,10.0,Calm,Calm,-,N/A,,Clear,0,2012-12-28 04:56:00
8:16 PM,-14.8,-16.6,92,29.49,10.0,Calm,Calm,-,N/A,,Clear,0,2012-12-28 05:16:00
8:36 PM,-16.6,-9999,N/A,29.50,10.0,Calm,Calm,-,N/A,,Clear,0,2012-12-28 05:36:00
8:56 PM,-18.4,-9999,N/A,29.50,10.0,Calm,Calm,-,N/A,,Clear,0,2012-12-28 05:56:00
9:16 PM,-14.8,-9999,N/A,29.50,10.0,Calm,Calm,-,N/A,,Clear,0,2012-12-28 06:16:00
9:36 PM,-14.8,-9999,N/A,29.50,10.0,Calm,Calm,-,N/A,,Clear,0,2012-12-28 06:36:00
9:56 PM,-9.4,-9999,N/A,29.50,10.0,Calm,Calm,-,N/A,,Clear,0,2012-12-28 06:56:00
10:16 PM,-14.8,-9999,N/A,29.51,10.0,Calm,Calm,-,N/A,,Clear,0,2012-12-28 07:16:00
10:36 PM,-14.8,-9999,N/A,29.51,10.0,Calm,Calm,-,N/A,,Clear,0,2012-12-28 07:36:00
10:56 PM,-16.6,-9999,N/A,29.51,10.0,Calm,Calm,-,N/A,,Clear,0,2012-12-28 07:56:00
11:16 PM,-18.4,-9999,N/A,29.51,10.0,Calm,Calm,-,N/A,,Clear,0,2012-12-28 08:16:00
11:36 PM,-14.8,-25.6,58,29.51,5.0,Calm,Calm,-,N/A,,Clear,0,2012-12-28 08:36:00
11:56 PM,-16.6,-90.4,4,29.51,8.0,Calm,Calm,-,N/A,,Clear,0,2012-12-28 08:56:00